Weather History for San Jose, Costa Rica

Change the Weather History Date:

Monday, April 14, 2014

  Actual Average Record
Temperature  
Mean Temperature 77 °F -  
Max Temperature 86 °F 82 °F 88 °F (2013)
Min Temperature 68 °F 65 °F 63 °F (2012)
Cooling Degree Days 12    
Growing Degree Days 27 (Base 50)    
Moisture  
Dew Point 61 °F    
Average Humidity 62    
Maximum Humidity 83    
Minimum Humidity 38    
Precipitation  
Precipitation 0.00 in 0.22 in - ()
Sea Level Pressure  
Sea Level Pressure 29.92 in    
Wind  
Wind Speed 6 mph ()    
Max Wind Speed 10 mph    
Max Gust Speed -    
Visibility 8.8 miles    
Events      
Averages and records for this station are not official NWS values.
T = Trace of Precipitation, MM = Missing Value Source: Averaged Metar Reports

Daily Weather History Graph

Daily Weather History Graph

Search for Another Location

Airport:

Trip Planner

Search our weather history database for the weather conditions in past years. The results will help you decide how hot, cold, wet, or windy it might be!

Date:

Astronomy

Apr. 14, 2014 Rise Set
Actual Time 5:26 AM CST 5:47 PM CST
Civil Twilight 5:05 AM CST 6:08 PM CST
Nautical Twilight 4:40 AM CST 6:33 PM CST
Astronomical Twilight 4:15 AM CST 6:58 PM CST
Moon 5:27 PM CST (4/14) 4:50 AM CST (4/14)
Length of Visible Light 13h 03m
Length of Day
12h 20m
Full, 100% of the Moon is Illuminated
Apr 14
Full
Apr 15
Full
Apr 22
Last Quarter
Apr 29
New
May 6
First Quarter

Hourly Weather History & Observations

Time (CST) Temp. Heat Index Dew Point Humidity Pressure Visibility Wind Dir Wind Speed Gust Speed Precip Events Conditions
12:00 AM 69 °F - 60 °F 66% 29.82 in 12 mi ENE 5.8 mph - -   Clear
12:00 AM 69.8 °F - 60.8 °F 73% 29.98 in - ENE 5.8 mph - N/A   Clear
1:00 AM 69.8 °F - 60.8 °F 73% 29.95 in - ENE 6.9 mph - N/A   Clear
2:00 AM 69.8 °F - 59.0 °F 68% 29.94 in - East 5.8 mph - N/A   Clear
3:00 AM 70 °F - 59 °F 60% 29.76 in 12 mi ENE 5.8 mph - -   Partly Cloudy
3:00 AM 69.8 °F - 59.0 °F 68% 29.93 in - ENE 5.8 mph - N/A   Clear
4:00 AM 69.8 °F - 59.0 °F 68% 29.93 in - ENE 4.6 mph - N/A   Clear
5:00 AM 69.8 °F - 59.0 °F 68% 29.95 in - ENE 5.8 mph - N/A   Clear
6:00 AM 69 °F - 59 °F 61% 29.83 in 12 mi ENE 5.8 mph - -   Mostly Cloudy
6:00 AM 68.0 °F - 59.0 °F 73% 29.97 in - ENE 5.8 mph - N/A   Clear
7:00 AM 73.4 °F - 59.0 °F 61% 29.99 in - ESE 8.1 mph - N/A   Clear
8:00 AM 78.8 °F - 60.8 °F 54% 30.01 in - East 8.1 mph - N/A   Clear
9:00 AM 80 °F - 59 °F 38% 29.85 in 12 mi ESE 10.4 mph - -   Scattered Clouds
9:00 AM 80.6 °F 81.1 °F 59.0 °F 48% 30.00 in 6.2 mi ESE 10.4 mph - N/A   Scattered Clouds
10:00 AM 84.2 °F 83.5 °F 57.2 °F 40% 30.00 in 6.2 mi East 9.2 mph - N/A   Mostly Cloudy
11:00 AM 84.2 °F 83.8 °F 59.0 °F 42% 29.99 in 6.2 mi ESE 6.9 mph - N/A   Mostly Cloudy
12:00 PM 83 °F - 62 °F 38% 29.81 in 12 mi WSW 10.4 mph - -   Partly Cloudy
12:00 PM 82.4 °F 82.9 °F 60.8 °F 48% 29.99 in 6.2 mi WSW 10.4 mph - N/A   Scattered Clouds
1:00 PM 78.8 °F - 64.4 °F 61% 29.94 in 6.2 mi South 6.9 mph - N/A   Scattered Clouds
2:00 PM 77.0 °F - 64.4 °F 65% 29.93 in 6.2 mi WSW 8.1 mph - N/A   Scattered Clouds
3:00 PM 74 °F - 65 °F 66% 29.78 in 12 mi West 3.5 mph - -   Partly Cloudy
3:00 PM 73.4 °F - 64.4 °F 73% 29.92 in 6.2 mi West 3.5 mph - N/A   Mostly Cloudy
4:00 PM 77.0 °F - 64.4 °F 65% 29.91 in 6.2 mi East 3.5 mph - N/A   Mostly Cloudy
5:00 PM 77.0 °F - 62.6 °F 61% 29.92 in 6.2 mi East 4.6 mph - N/A   Mostly Cloudy
6:00 PM 75 °F - 63 °F 57% 29.79 in 12 mi East 5.8 mph - -   Clear
6:00 PM 75.2 °F - 62.6 °F 65% 29.93 in - East 5.8 mph - N/A   Clear
7:00 PM 73.4 °F - 62.6 °F 69% 29.94 in - East 6.9 mph - N/A   Clear
8:00 PM 73.4 °F - 62.6 °F 69% 29.96 in - East 5.8 mph - N/A   Clear
9:00 PM 72 °F - 63 °F 65% 29.82 in 12 mi East 3.5 mph - -   Mostly Cloudy
9:00 PM 71.6 °F - 62.6 °F 73% 29.98 in - East 3.5 mph - N/A   Clear
10:00 PM 71.6 °F - 64.4 °F 78% 30.01 in - South 3.5 mph - N/A   Clear
11:00 PM 69.8 °F - 64.4 °F 83% 30.00 in 6.2 mi Calm Calm - N/A   Mostly Cloudy